"read_dt","SO2 (ppb)","flags","PMT voltage (V)","lamp voltage (V)","lamp intensity (Hz)","internal temp (C)","react chamber temp (C)","sample flow (l/min)","pres (mmHg)","SO2 bkg (ppb)","SO2 coefficient"
2015-04-21 00:00:00,1775E-3,5C000000,-0724,0834,12180,026.7,045.4,0.478,738.6,01.18,0.508
2015-04-21 00:01:00,1723E-3,5C000000,-0724,0834,12059,026.7,045.4,0.478,738.6,01.18,0.508
2015-04-21 00:02:00,1731E-3,5C000000,-0724,0834,12202,026.8,045.4,0.478,738.6,01.18,0.508
2015-04-21 00:03:00,1875E-3,5C000000,-0724,0834,12131,026.8,045.4,0.478,738.5,01.18,0.508
2015-04-21 00:04:00,1888E-3,5C000000,-0724,0834,12129,026.8,045.4,0.477,738.5,01.18,0.508
2015-04-21 00:05:00,1819E-3,5C000000,-0724,0834,12081,026.8,045.4,0.477,738.5,01.18,0.508
2015-04-21 00:06:00,1998E-3,5C000000,-0724,0834,12065,026.9,045.4,0.478,738.5,01.18,0.508
2015-04-21 00:07:00,1885E-3,5C000000,-0724,0834,12167,026.9,045.4,0.478,738.5,01.18,0.508
2015-04-21 00:08:00,1748E-3,5C000000,-0724,0834,12130,026.9,045.4,0.478,738.5,01.18,0.508
2015-04-21 00:09:00,1827E-3,5C000000,-0724,0834,12140,026.9,045.4,0.478,738.5,01.18,0.508
2015-04-21 00:10:00,1865E-3,5C000000,-0724,0833,12139,026.9,045.4,0.478,738.5,01.18,0.508
2015-04-21 00:11:00,2038E-3,5C000000,-0724,0834,12077,026.9,045.4,0.477,738.5,01.18,0.508
2015-04-21 00:12:00,1911E-3,5C000000,-0724,0834,12186,026.9,045.4,0.477,738.5,01.18,0.508
2015-04-21 00:13:00,1941E-3,5C000000,-0724,0834,12154,026.8,045.4,0.478,738.5,01.18,0.508
2015-04-21 00:14:00,1902E-3,5C000000,-0724,0835,12107,026.8,045.4,0.478,738.6,01.18,0.508
2015-04-21 00:15:00,1847E-3,5C000000,-0724,0833,12102,026.6,045.4,0.477,738.6,01.18,0.508
2015-04-21 00:16:00,1905E-3,5C000000,-0724,0834,12189,026.5,045.4,0.478,738.6,01.18,0.508
2015-04-21 00:17:00,1709E-3,5C000000,-0724,0834,12189,026.4,045.4,0.478,738.6,01.18,0.508
2015-04-21 00:18:00,1779E-3,5C000000,-0724,0834,12246,026.3,045.4,0.478,738.6,01.18,0.508
2015-04-21 00:19:00,1700E-3,5C000000,-0724,0833,12001,026.3,045.4,0.479,738.6,01.18,0.508
2015-04-21 00:20:00,1688E-3,5C000000,-0724,0834,12214,026.2,045.4,0.478,738.6,01.18,0.508
2015-04-21 00:21:00,1756E-3,5C000000,-0724,0833,12112,026.1,045.4,0.478,738.6,01.18,0.508
2015-04-21 00:22:00,1746E-3,5C000000,-0724,0833,12149,026.0,045.4,0.479,738.6,01.18,0.508
2015-04-21 00:23:00,1883E-3,5C000000,-0724,0834,12168,026.0,045.4,0.479,738.6,01.18,0.508
2015-04-21 00:24:00,1720E-3,5C000000,-0724,0833,12144,026.0,045.4,0.478,738.6,01.18,0.508
2015-04-21 00:25:00,1789E-3,5C000000,-0724,0834,12119,025.9,045.4,0.479,738.6,01.18,0.508
2015-04-21 00:26:00,1723E-3,5C000000,-0724,0834,12285,025.8,045.4,0.479,738.6,01.18,0.508
2015-04-21 00:27:00,1772E-3,5C000000,-0724,0834,12276,025.8,045.4,0.479,738.6,01.18,0.508
2015-04-21 00:28:00,1792E-3,5C000000,-0724,0833,12143,025.8,045.4,0.479,738.5,01.18,0.508
2015-04-21 00:29:00,1812E-3,5C000000,-0724,0834,12148,025.7,045.4,0.479,738.5,01.18,0.508
2015-04-21 00:30:00,1789E-3,5C000000,-0724,0834,12159,025.7,045.4,0.479,738.5,01.18,0.508
2015-04-21 00:31:00,1702E-3,5C000000,-0724,0833,12133,025.7,045.4,0.479,738.5,01.18,0.508
2015-04-21 00:32:00,1708E-3,5C000000,-0724,0834,12112,025.7,045.4,0.479,738.5,01.18,0.508
2015-04-21 00:33:00,1889E-3,5C000000,-0724,0834,11968,025.8,045.4,0.479,738.5,01.18,0.508
2015-04-21 00:34:00,1834E-3,5C000000,-0724,0834,12061,025.9,045.4,0.479,738.4,01.18,0.508
2015-04-21 00:35:00,1689E-3,5C000000,-0724,0833,12095,026.1,045.4,0.479,738.5,01.18,0.508
2015-04-21 00:36:00,1640E-3,5C000000,-0724,0834,11877,026.1,045.4,0.479,738.4,01.18,0.508
2015-04-21 00:37:00,1765E-3,5C000000,-0724,0834,12273,026.2,045.4,0.479,738.4,01.18,0.508
2015-04-21 00:38:00,1713E-3,5C000000,-0724,0834,12250,026.2,045.4,0.479,738.4,01.18,0.508
2015-04-21 00:39:00,1768E-3,5C000000,-0724,0833,12178,026.3,045.4,0.479,738.4,01.18,0.508
2015-04-21 00:40:00,1699E-3,5C000000,-0724,0834,12187,026.4,045.4,0.478,738.4,01.18,0.508
2015-04-21 00:41:00,1870E-3,5C000000,-0724,0834,12121,026.4,045.4,0.478,738.4,01.18,0.508
2015-04-21 00:42:00,1765E-3,5C000000,-0724,0834,12223,026.5,045.4,0.478,738.4,01.18,0.508
2015-04-21 00:43:00,1811E-3,5C000000,-0724,0833,12237,026.5,045.4,0.478,738.4,01.18,0.508
2015-04-21 00:44:00,1716E-3,5C000000,-0724,0834,12238,026.6,045.4,0.478,738.4,01.18,0.508
2015-04-21 00:45:00,1912E-3,5C000000,-0724,0834,12247,026.6,045.4,0.478,738.4,01.18,0.508
2015-04-21 00:46:00,1784E-3,5C000000,-0724,0833,12208,026.7,045.4,0.478,738.4,01.18,0.508
2015-04-21 00:47:00,1769E-3,5C000000,-0724,0834,12039,026.7,045.4,0.478,738.4,01.18,0.508
2015-04-21 00:48:00,1773E-3,5C000000,-0724,0834,12103,026.8,045.4,0.478,738.4,01.18,0.508
2015-04-21 00:49:00,1784E-3,5C000000,-0724,0834,12214,026.8,045.4,0.478,738.4,01.18,0.508
2015-04-21 00:50:00,1835E-3,5C000000,-0724,0834,12050,026.8,045.4,0.478,738.4,01.18,0.508
2015-04-21 00:51:00,1776E-3,5C000000,-0724,0834,12287,026.8,045.4,0.478,738.4,01.18,0.508
2015-04-21 00:52:00,1824E-3,5C000000,-0724,0834,12201,026.8,045.4,0.477,738.4,01.18,0.508
2015-04-21 00:53:00,1693E-3,5C000000,-0724,0834,12280,026.8,045.4,0.477,738.4,01.18,0.508
2015-04-21 00:54:00,1741E-3,5C000000,-0724,0834,12107,026.7,045.4,0.478,738.4,01.18,0.508
2015-04-21 00:55:00,1707E-3,5C000000,-0724,0834,12166,026.7,045.4,0.478,738.4,01.18,0.508
2015-04-21 00:56:00,1704E-3,5C000000,-0724,0834,12082,026.6,045.4,0.478,738.4,01.18,0.508
2015-04-21 00:57:00,1727E-3,5C000000,-0724,0833,12054,026.5,045.4,0.478,738.5,01.18,0.508
2015-04-21 00:58:00,1716E-3,5C000000,-0724,0834,12136,026.4,045.4,0.478,738.4,01.18,0.508
2015-04-21 00:59:00,1672E-3,5C000000,-0724,0834,12234,026.3,045.4,0.478,738.4,01.18,0.508
2015-04-21 01:00:00,1803E-3,5C000000,-0724,0833,12151,026.2,045.4,0.478,738.4,01.18,0.508
2015-04-21 01:01:00,1870E-3,5C000000,-0724,0833,12075,026.1,045.4,0.478,738.4,01.18,0.508
2015-04-21 01:02:00,1713E-3,5C000000,-0724,0833,12181,026.1,045.4,0.478,738.4,01.18,0.508
2015-04-21 01:03:00,1705E-3,5C000000,-0724,0833,11926,026.0,045.4,0.478,738.4,01.18,0.508
2015-04-21 01:04:00,1929E-3,5C000000,-0724,0833,12129,026.0,045.4,0.479,738.4,01.18,0.508
2015-04-21 01:05:00,1820E-3,5C000000,-0724,0834,12244,025.9,045.4,0.479,738.4,01.18,0.508
2015-04-21 01:06:00,1777E-3,5C000000,-0724,0833,12313,025.9,045.4,0.478,738.4,01.18,0.508
2015-04-21 01:07:00,1741E-3,5C000000,-0724,0833,12114,025.8,045.4,0.478,738.4,01.18,0.508
2015-04-21 01:08:00,1812E-3,5C000000,-0724,0834,12200,025.8,045.4,0.479,738.4,01.18,0.508
2015-04-21 01:09:00,1845E-3,5C000000,-0724,0833,12240,025.8,045.4,0.479,738.4,01.18,0.508
2015-04-21 01:10:00,1999E-3,5C000000,-0724,0834,12244,025.7,045.4,0.479,738.4,01.18,0.508
2015-04-21 01:11:00,1753E-3,5C000000,-0724,0833,12292,025.7,045.4,0.479,738.4,01.18,0.508
2015-04-21 01:12:00,1751E-3,5C000000,-0724,0834,12214,025.7,045.4,0.479,738.4,01.18,0.508
2015-04-21 01:13:00,1662E-3,5C000000,-0724,0834,12283,025.7,045.4,0.479,738.4,01.18,0.508
2015-04-21 01:14:00,1791E-3,5C000000,-0724,0833,12072,025.6,045.4,0.479,738.4,01.18,0.508
2015-04-21 01:15:00,1594E-3,5C000000,-0724,0833,12097,025.6,045.3,0.479,738.5,01.18,0.508
2015-04-21 01:16:00,1825E-3,5C000000,-0724,0834,12128,025.6,045.4,0.479,738.5,01.18,0.508
2015-04-21 01:17:00,1812E-3,5C000000,-0724,0833,12019,025.6,045.4,0.479,738.4,01.18,0.508
2015-04-21 01:18:00,1803E-3,5C000000,-0724,0833,12339,025.7,045.4,0.479,738.4,01.18,0.508
2015-04-21 01:19:00,1795E-3,5C000000,-0724,0833,12214,025.8,045.4,0.479,738.4,01.18,0.508
2015-04-21 01:20:00,1877E-3,5C000000,-0724,0833,12143,025.9,045.4,0.479,738.4,01.18,0.508
2015-04-21 01:21:00,1901E-3,5C000000,-0724,0833,12355,026.0,045.4,0.479,738.3,01.18,0.508
2015-04-21 01:22:00,1812E-3,5C000000,-0724,0834,12178,026.1,045.4,0.479,738.3,01.18,0.508
2015-04-21 01:23:00,1825E-3,5C000000,-0724,0835,12220,026.2,045.4,0.479,738.3,01.18,0.508
2015-04-21 01:24:00,1843E-3,5C000000,-0724,0834,12176,026.3,045.4,0.479,738.3,01.18,0.508
2015-04-21 01:25:00,1696E-3,5C000000,-0724,0834,12187,026.3,045.4,0.479,738.3,01.18,0.508
2015-04-21 01:26:00,1647E-3,5C000000,-0724,0834,12231,026.4,045.4,0.479,738.3,01.18,0.508
2015-04-21 01:27:00,1858E-3,5C000000,-0724,0833,12205,026.5,045.4,0.479,738.3,01.18,0.508
2015-04-21 01:28:00,1616E-3,5C000000,-0724,0835,12128,026.5,045.4,0.479,738.3,01.18,0.508
2015-04-21 01:29:00,1927E-3,5C000000,-0724,0835,12120,026.6,045.4,0.478,738.3,01.18,0.508
2015-04-21 01:30:00,1713E-3,5C000000,-0724,0834,12124,026.6,045.4,0.478,738.3,01.18,0.508
2015-04-21 01:31:00,1793E-3,5C000000,-0724,0834,12047,026.7,045.4,0.478,738.3,01.18,0.508
2015-04-21 01:32:00,1745E-3,5C000000,-0724,0833,12096,026.7,045.4,0.478,738.3,01.18,0.508
2015-04-21 01:33:00,1738E-3,5C000000,-0724,0835,12185,026.7,045.4,0.478,738.3,01.18,0.508
2015-04-21 01:34:00,1649E-3,5C000000,-0724,0834,12259,026.7,045.4,0.478,738.3,01.18,0.508
2015-04-21 01:35:00,1715E-3,5C000000,-0724,0833,12082,026.7,045.4,0.478,738.3,01.18,0.508
2015-04-21 01:36:00,1793E-3,5C000000,-0724,0834,11929,026.7,045.4,0.478,738.3,01.18,0.508
2015-04-21 01:37:00,1730E-3,5C000000,-0724,0834,12269,026.7,045.4,0.478,738.3,01.18,0.508
2015-04-21 01:38:00,1803E-3,5C000000,-0724,0834,12200,026.7,045.4,0.478,738.3,01.18,0.508
2015-04-21 01:39:00,1811E-3,5C000000,-0724,0834,12192,026.6,045.4,0.478,738.3,01.18,0.508
2015-04-21 01:40:00,1702E-3,5C000000,-0724,0833,12112,026.5,045.4,0.477,738.3,01.18,0.508
2015-04-21 01:41:00,1719E-3,5C000000,-0724,0834,12185,026.4,045.4,0.478,738.3,01.18,0.508
2015-04-21 01:42:00,1780E-3,5C000000,-0724,0833,12060,026.3,045.4,0.478,738.3,01.18,0.508
2015-04-21 01:43:00,1773E-3,5C000000,-0724,0834,12100,026.2,045.4,0.478,738.3,01.18,0.508
2015-04-21 01:44:00,1691E-3,5C000000,-0724,0835,12176,026.2,045.4,0.479,738.3,01.18,0.508
2015-04-21 01:45:00,1882E-3,5C000000,-0724,0834,12182,026.1,045.4,0.478,738.3,01.18,0.508
2015-04-21 01:46:00,1832E-3,5C000000,-0724,0833,12081,026.1,045.4,0.478,738.3,01.18,0.508
2015-04-21 01:47:00,1697E-3,5C000000,-0724,0835,12139,026.0,045.4,0.479,738.3,01.18,0.508
2015-04-21 01:48:00,1638E-3,5C000000,-0724,0833,12181,025.9,045.4,0.479,738.3,01.18,0.508
2015-04-21 01:49:00,1678E-3,5C000000,-0724,0833,12241,025.9,045.4,0.479,738.3,01.18,0.508
2015-04-21 01:50:00,1764E-3,5C000000,-0724,0834,12082,025.9,045.4,0.478,738.3,01.18,0.508
2015-04-21 01:51:00,1884E-3,5C000000,-0724,0834,12265,025.8,045.4,0.478,738.3,01.18,0.508
2015-04-21 01:52:00,1782E-3,5C000000,-0724,0833,12257,025.8,045.4,0.479,738.3,01.18,0.508
2015-04-21 01:53:00,1852E-3,5C000000,-0724,0833,12168,025.8,045.4,0.479,738.3,01.18,0.508
2015-04-21 01:54:00,1814E-3,5C000000,-0724,0833,12164,025.7,045.4,0.479,738.3,01.18,0.508
2015-04-21 01:55:00,1803E-3,5C000000,-0724,0834,12202,025.7,045.4,0.479,738.3,01.18,0.508
2015-04-21 01:56:00,1714E-3,5C000000,-0724,0833,11978,025.7,045.4,0.479,738.3,01.18,0.508
2015-04-21 01:57:00,1770E-3,5C000000,-0724,0833,12273,025.7,045.4,0.479,738.3,01.18,0.508
2015-04-21 01:58:00,1788E-3,5C000000,-0724,0833,12084,025.6,045.4,0.479,738.3,01.18,0.508
2015-04-21 01:59:00,1741E-3,5C000000,-0724,0834,12320,025.6,045.4,0.479,738.3,01.18,0.508
2015-04-21 02:00:00,1913E-3,5C000000,-0724,0834,12244,025.6,045.4,0.479,738.3,01.18,0.508
2015-04-21 02:01:00,1762E-3,5C000000,-0724,0834,12334,025.6,045.4,0.480,738.3,01.18,0.508
2015-04-21 02:02:00,1780E-3,5C000000,-0724,0834,12165,025.6,045.4,0.480,738.3,01.18,0.508
2015-04-21 02:03:00,1805E-3,5C000000,-0724,0833,12277,025.6,045.4,0.479,738.3,01.18,0.508
2015-04-21 02:04:00,1765E-3,5C000000,-0724,0833,12133,025.6,045.4,0.479,738.4,01.18,0.508
2015-04-21 02:05:00,1843E-3,5C000000,-0724,0835,12246,025.6,045.4,0.479,738.4,01.18,0.508
2015-04-21 02:06:00,1819E-3,5C000000,-0724,0835,12229,025.7,045.4,0.479,738.3,01.18,0.508
2015-04-21 02:07:00,1719E-3,5C000000,-0724,0833,12289,025.9,045.4,0.479,738.3,01.18,0.508
2015-04-21 02:08:00,1775E-3,5C000000,-0724,0834,12019,026.0,045.4,0.479,738.3,01.18,0.508
2015-04-21 02:09:00,1797E-3,5C000000,-0724,0834,12055,026.1,045.4,0.479,738.3,01.18,0.508
2015-04-21 02:10:00,1835E-3,5C000000,-0724,0834,12227,026.1,045.4,0.479,738.4,01.18,0.508
2015-04-21 02:11:00,1931E-3,5C000000,-0724,0834,12140,026.2,045.4,0.479,738.4,01.18,0.508
2015-04-21 02:12:00,1728E-3,5C000000,-0724,0834,12149,026.3,045.4,0.479,738.3,01.18,0.508
2015-04-21 02:13:00,1936E-3,5C000000,-0724,0834,12198,026.4,045.4,0.479,738.3,01.18,0.508
2015-04-21 02:14:00,1754E-3,5C000000,-0724,0833,12188,026.4,045.4,0.479,738.3,01.18,0.508
2015-04-21 02:15:00,1874E-3,5C000000,-0724,0833,12230,026.5,045.4,0.479,738.3,01.18,0.508
2015-04-21 02:16:00,1874E-3,5C000000,-0724,0834,12210,026.5,045.4,0.478,738.3,01.18,0.508
2015-04-21 02:17:00,1811E-3,5C000000,-0724,0833,12225,026.6,045.4,0.478,738.3,01.18,0.508
2015-04-21 02:18:00,1800E-3,5C000000,-0724,0835,12139,026.6,045.4,0.478,738.3,01.18,0.508
2015-04-21 02:19:00,1901E-3,5C000000,-0724,0834,12093,026.7,045.4,0.478,738.3,01.18,0.508
2015-04-21 02:20:00,1798E-3,5C000000,-0724,0834,11974,026.7,045.4,0.478,738.3,01.18,0.508
2015-04-21 02:21:00,1607E-3,5C000000,-0724,0834,12190,026.7,045.4,0.478,738.3,01.18,0.508
2015-04-21 02:22:00,1766E-3,5C000000,-0724,0834,12163,026.7,045.4,0.478,738.3,01.18,0.508
2015-04-21 02:23:00,1749E-3,5C000000,-0724,0834,12332,026.7,045.4,0.478,738.3,01.18,0.508
2015-04-21 02:24:00,1839E-3,5C000000,-0724,0834,12234,026.7,045.4,0.478,738.3,01.18,0.508
2015-04-21 02:25:00,1775E-3,5C000000,-0724,0834,12133,026.6,045.4,0.478,738.4,01.18,0.508
2015-04-21 02:26:00,1857E-3,5C000000,-0724,0834,12063,026.5,045.4,0.477,738.3,01.18,0.508
2015-04-21 02:27:00,1832E-3,5C000000,-0724,0834,12033,026.4,045.4,0.478,738.4,01.18,0.508
2015-04-21 02:28:00,1563E-3,5C000000,-0724,0833,12161,026.3,045.4,0.478,738.4,01.18,0.508
2015-04-21 02:29:00,1787E-3,5C000000,-0724,0833,12249,026.3,045.4,0.478,738.4,01.18,0.508
2015-04-21 02:30:00,1871E-3,5C000000,-0724,0833,12170,026.2,045.4,0.479,738.3,01.18,0.508
2015-04-21 02:31:00,1770E-3,5C000000,-0724,0833,11891,026.2,045.4,0.478,738.3,01.18,0.508
2015-04-21 02:32:00,1788E-3,5C000000,-0724,0834,11964,026.1,045.4,0.478,738.3,01.18,0.508
2015-04-21 02:33:00,1773E-3,5C000000,-0724,0833,12178,026.1,045.4,0.478,738.3,01.18,0.508
2015-04-21 02:34:00,1884E-3,5C000000,-0724,0833,12262,026.0,045.4,0.479,738.3,01.18,0.508
2015-04-21 02:35:00,1766E-3,5C000000,-0724,0834,12264,026.0,045.4,0.479,738.3,01.18,0.508
2015-04-21 02:36:00,1711E-3,5C000000,-0724,0833,12082,025.9,045.4,0.479,738.3,01.18,0.508
2015-04-21 02:37:00,1689E-3,5C000000,-0724,0833,12041,025.9,045.4,0.478,738.3,01.18,0.508
2015-04-21 02:38:00,1757E-3,5C000000,-0724,0834,12196,025.8,045.4,0.479,738.2,01.18,0.508
2015-04-21 02:39:00,1744E-3,5C000000,-0724,0833,12162,025.8,045.4,0.479,738.3,01.18,0.508
2015-04-21 02:40:00,1720E-3,5C000000,-0724,0834,12304,025.8,045.4,0.479,738.3,01.18,0.508
2015-04-21 02:41:00,1911E-3,5C000000,-0724,0833,12222,025.8,045.4,0.479,738.2,01.18,0.508
2015-04-21 02:42:00,1781E-3,5C000000,-0724,0834,12177,025.7,045.4,0.479,738.3,01.18,0.508
2015-04-21 02:43:00,1792E-3,5C000000,-0724,0834,12287,025.7,045.4,0.479,738.2,01.18,0.508
2015-04-21 02:44:00,1827E-3,5C000000,-0724,0833,12250,025.7,045.4,0.479,738.2,01.18,0.508
2015-04-21 02:45:00,1815E-3,5C000000,-0724,0834,12148,025.7,045.4,0.479,738.2,01.18,0.508
2015-04-21 02:46:00,1775E-3,5C000000,-0724,0833,12162,025.7,045.4,0.479,738.2,01.18,0.508
2015-04-21 02:47:00,1806E-3,5C000000,-0724,0834,12155,025.7,045.4,0.479,738.2,01.18,0.508
2015-04-21 02:48:00,1768E-3,5C000000,-0724,0833,12359,025.6,045.4,0.479,738.2,01.18,0.508
2015-04-21 02:49:00,1893E-3,5C000000,-0724,0834,11954,025.6,045.4,0.479,738.2,01.18,0.508
2015-04-21 02:50:00,1769E-3,5C000000,-0724,0834,12159,025.6,045.4,0.479,738.2,01.18,0.508
2015-04-21 02:51:00,1860E-3,5C000000,-0724,0833,12170,025.6,045.4,0.479,738.3,01.18,0.508
2015-04-21 02:52:00,1838E-3,5C000000,-0724,0834,12262,025.6,045.4,0.479,738.2,01.18,0.508
2015-04-21 02:53:00,1823E-3,5C000000,-0724,0833,12080,025.6,045.4,0.479,738.2,01.18,0.508
2015-04-21 02:54:00,1773E-3,5C000000,-0724,0833,12145,025.6,045.4,0.480,738.2,01.18,0.508
2015-04-21 02:55:00,1926E-3,5C000000,-0724,0833,12208,025.5,045.4,0.479,738.2,01.18,0.508
2015-04-21 02:56:00,1845E-3,5C000000,-0724,0833,12252,025.5,045.4,0.479,738.2,01.18,0.508
2015-04-21 02:57:00,1774E-3,5C000000,-0724,0833,12285,025.5,045.4,0.479,738.2,01.18,0.508
2015-04-21 02:58:00,1796E-3,5C000000,-0724,0833,12150,025.5,045.4,0.479,738.2,01.18,0.508
2015-04-21 02:59:00,1783E-3,5C000000,-0724,0834,12107,025.5,045.4,0.479,738.2,01.18,0.508
2015-04-21 03:00:00,1752E-3,5C000000,-0724,0833,12042,025.5,045.4,0.479,738.1,01.18,0.508
2015-04-21 03:01:00,1813E-3,5C000000,-0724,0834,12184,025.5,045.4,0.479,738.2,01.18,0.508
2015-04-21 03:02:00,1676E-3,5C000000,-0724,0835,12188,025.5,045.4,0.479,738.2,01.18,0.508
2015-04-21 03:03:00,1893E-3,5C000000,-0724,0834,12069,025.5,045.4,0.479,738.2,01.18,0.508
2015-04-21 03:04:00,1719E-3,5C000000,-0724,0833,12239,025.5,045.4,0.479,738.2,01.18,0.508
2015-04-21 03:05:00,1817E-3,5C000000,-0724,0834,12207,025.5,045.4,0.479,738.2,01.18,0.508
2015-04-21 03:06:00,1797E-3,5C000000,-0724,0834,12198,025.5,045.4,0.479,738.2,01.18,0.508
2015-04-21 03:07:00,1791E-3,5C000000,-0724,0834,12191,025.5,045.4,0.479,738.2,01.18,0.508
2015-04-21 03:08:00,1754E-3,5C000000,-0724,0834,12198,025.5,045.4,0.479,738.2,01.18,0.508
2015-04-21 03:09:00,1794E-3,5C000000,-0724,0834,12113,025.5,045.4,0.479,738.2,01.18,0.508
2015-04-21 03:10:00,1838E-3,5C000000,-0724,0834,12195,025.4,045.4,0.479,738.1,01.18,0.508
2015-04-21 03:11:00,1790E-3,5C000000,-0724,0834,12207,025.4,045.4,0.479,738.2,01.18,0.508
2015-04-21 03:12:00,1803E-3,5C000000,-0724,0834,12126,025.4,045.4,0.479,738.1,01.18,0.508
2015-04-21 03:13:00,1999E-3,5C000000,-0724,0833,12180,025.5,045.3,0.479,738.2,01.18,0.508
2015-04-21 03:14:00,1750E-3,5C000000,-0724,0833,12232,025.4,045.4,0.479,738.2,01.18,0.508
2015-04-21 03:15:00,1801E-3,5C000000,-0724,0833,12315,025.4,045.4,0.480,738.1,01.18,0.508
2015-04-21 03:16:00,1722E-3,5C000000,-0724,0833,12107,025.4,045.4,0.480,738.1,01.18,0.508
2015-04-21 03:17:00,1917E-3,5C000000,-0724,0833,12122,025.4,045.4,0.480,738.1,01.18,0.508
2015-04-21 03:18:00,1781E-3,5C000000,-0724,0832,12130,025.4,045.4,0.480,738.2,01.18,0.508
2015-04-21 03:19:00,1950E-3,5C000000,-0724,0833,12185,025.4,045.4,0.479,738.2,01.18,0.508
2015-04-21 03:20:00,1869E-3,5C000000,-0724,0833,12047,025.4,045.4,0.479,738.2,01.18,0.508
2015-04-21 03:21:00,1723E-3,5C000000,-0724,0834,12342,025.4,045.4,0.479,738.1,01.18,0.508
2015-04-21 03:22:00,1794E-3,5C000000,-0724,0834,12130,025.4,045.4,0.479,738.1,01.18,0.508
2015-04-21 03:23:00,1784E-3,5C000000,-0724,0834,12087,025.5,045.4,0.479,738.1,01.18,0.508
2015-04-21 03:24:00,1849E-3,5C000000,-0724,0833,12236,025.5,045.4,0.479,738.1,01.18,0.508
2015-04-21 03:25:00,1668E-3,5C000000,-0724,0833,12154,025.7,045.4,0.479,738.1,01.18,0.508
2015-04-21 03:26:00,1813E-3,5C000000,-0724,0833,12179,025.8,045.4,0.479,738.0,01.18,0.508
2015-04-21 03:27:00,1782E-3,5C000000,-0724,0833,12216,025.9,045.4,0.479,738.0,01.18,0.508
2015-04-21 03:28:00,1702E-3,5C000000,-0724,0834,12194,026.0,045.4,0.479,738.0,01.18,0.508
2015-04-21 03:29:00,1851E-3,5C000000,-0724,0834,12201,026.1,045.4,0.479,738.0,01.18,0.508
2015-04-21 03:30:00,1769E-3,5C000000,-0724,0834,12119,026.2,045.4,0.478,738.0,01.18,0.508
2015-04-21 03:31:00,1851E-3,5C000000,-0724,0834,12184,026.3,045.4,0.478,738.0,01.18,0.508
2015-04-21 03:32:00,1818E-3,5C000000,-0724,0834,12212,026.4,045.4,0.478,738.0,01.18,0.508
2015-04-21 03:33:00,1679E-3,5C000000,-0724,0834,12197,026.4,045.4,0.478,738.0,01.18,0.508
2015-04-21 03:34:00,1805E-3,5C000000,-0724,0833,12111,026.5,045.4,0.478,738.0,01.18,0.508
2015-04-21 03:35:00,1769E-3,5C000000,-0724,0832,12346,026.6,045.4,0.478,738.0,01.18,0.508
2015-04-21 03:36:00,1764E-3,5C000000,-0724,0833,12307,026.6,045.4,0.478,738.0,01.18,0.508
2015-04-21 03:37:00,1750E-3,5C000000,-0724,0834,12077,026.7,045.4,0.478,738.0,01.18,0.508
2015-04-21 03:38:00,1743E-3,5C000000,-0724,0834,12197,026.7,045.4,0.478,738.0,01.18,0.508
2015-04-21 03:39:00,1699E-3,5C000000,-0724,0833,12194,026.8,045.4,0.478,738.0,01.18,0.508
2015-04-21 03:40:00,1815E-3,5C000000,-0724,0833,12291,026.8,045.4,0.478,738.0,01.18,0.508
2015-04-21 03:41:00,1902E-3,5C000000,-0724,0834,12191,026.7,045.4,0.478,738.0,01.18,0.508
2015-04-21 03:42:00,1831E-3,5C000000,-0724,0834,12197,026.7,045.4,0.478,738.0,01.18,0.508
2015-04-21 03:43:00,1878E-3,5C000000,-0724,0833,12056,026.6,045.4,0.478,738.0,01.18,0.508
2015-04-21 03:44:00,1804E-3,5C000000,-0724,0834,12193,026.5,045.4,0.477,738.0,01.18,0.508
2015-04-21 03:45:00,1715E-3,5C000000,-0724,0834,12087,026.4,045.4,0.478,738.0,01.18,0.508
2015-04-21 03:46:00,1825E-3,5C000000,-0724,0833,12189,026.4,045.4,0.478,738.0,01.18,0.508
2015-04-21 03:47:00,1762E-3,5C000000,-0724,0833,12120,026.3,045.4,0.478,738.0,01.18,0.508
2015-04-21 03:48:00,1797E-3,5C000000,-0724,0833,12211,026.2,045.4,0.478,738.0,01.18,0.508
2015-04-21 03:49:00,1599E-3,5C000000,-0724,0834,12089,026.2,045.4,0.478,738.0,01.18,0.508
2015-04-21 03:50:00,1805E-3,5C000000,-0724,0833,12153,026.2,045.4,0.478,738.0,01.18,0.508
2015-04-21 03:51:00,1878E-3,5C000000,-0724,0833,12050,026.1,045.4,0.478,738.0,01.18,0.508
2015-04-21 03:52:00,1764E-3,5C000000,-0724,0834,12187,026.1,045.4,0.478,738.0,01.18,0.508
2015-04-21 03:53:00,1724E-3,5C000000,-0724,0833,12105,026.0,045.4,0.478,738.0,01.18,0.508
2015-04-21 03:54:00,1801E-3,5C000000,-0724,0833,12262,026.0,045.4,0.479,738.0,01.18,0.508
2015-04-21 03:55:00,1826E-3,5C000000,-0724,0833,12190,026.0,045.4,0.479,738.0,01.18,0.508
2015-04-21 03:56:00,1822E-3,5C000000,-0724,0834,12218,025.9,045.4,0.479,738.0,01.18,0.508
2015-04-21 03:57:00,1823E-3,5C000000,-0724,0834,12179,025.9,045.4,0.479,738.0,01.18,0.508
2015-04-21 03:58:00,1747E-3,5C000000,-0724,0833,12173,025.9,045.4,0.478,738.0,01.18,0.508
2015-04-21 03:59:00,1770E-3,5C000000,-0724,0833,12216,025.8,045.4,0.478,738.0,01.18,0.508
2015-04-21 04:00:00,1767E-3,5C000000,-0724,0834,12226,025.8,045.4,0.478,738.0,01.18,0.508
2015-04-21 04:01:00,1836E-3,5C000000,-0724,0834,12120,025.8,045.4,0.478,738.0,01.18,0.508
2015-04-21 04:02:00,1765E-3,5C000000,-0724,0833,12020,025.8,045.4,0.478,738.0,01.18,0.508
2015-04-21 04:03:00,1767E-3,5C000000,-0724,0834,12242,025.7,045.4,0.479,738.0,01.18,0.508
2015-04-21 04:04:00,1750E-3,5C000000,-0724,0833,12082,025.7,045.4,0.479,738.0,01.18,0.508
2015-04-21 04:05:00,1725E-3,5C000000,-0724,0834,12166,025.7,045.4,0.479,738.0,01.18,0.508
2015-04-21 04:06:00,1833E-3,5C000000,-0724,0833,12113,025.7,045.4,0.479,738.0,01.18,0.508
2015-04-21 04:07:00,1822E-3,5C000000,-0724,0833,12009,025.7,045.4,0.479,738.0,01.18,0.508
2015-04-21 04:08:00,1689E-3,5C000000,-0724,0833,12179,025.7,045.4,0.479,738.0,01.18,0.508
2015-04-21 04:09:00,1847E-3,5C000000,-0724,0833,12095,025.7,045.4,0.479,738.0,01.18,0.508
2015-04-21 04:10:00,1834E-3,5C000000,-0724,0833,12084,025.6,045.4,0.479,737.9,01.18,0.508
2015-04-21 04:11:00,1722E-3,5C000000,-0724,0834,12300,025.6,045.4,0.479,738.0,01.18,0.508
2015-04-21 04:12:00,1875E-3,5C000000,-0724,0833,12213,025.6,045.4,0.479,737.9,01.18,0.508
2015-04-21 04:13:00,1839E-3,5C000000,-0724,0833,12201,025.6,045.4,0.479,737.9,01.18,0.508
2015-04-21 04:14:00,1802E-3,5C000000,-0724,0834,12198,025.6,045.4,0.479,738.0,01.18,0.508
2015-04-21 04:15:00,1759E-3,5C000000,-0724,0833,12240,025.6,045.4,0.479,738.0,01.18,0.508
2015-04-21 04:16:00,1647E-3,5C000000,-0724,0833,12196,025.6,045.4,0.479,738.0,01.18,0.508
2015-04-21 04:17:00,1849E-3,5C000000,-0724,0834,12305,025.6,045.4,0.479,737.9,01.18,0.508
2015-04-21 04:18:00,1601E-3,5C000000,-0724,0834,12097,025.6,045.4,0.479,737.9,01.18,0.508
2015-04-21 04:19:00,1776E-3,5C000000,-0724,0834,12141,025.6,045.4,0.479,737.9,01.18,0.508
2015-04-21 04:20:00,1758E-3,5C000000,-0724,0834,12221,025.6,045.4,0.479,737.9,01.18,0.508